TimeMDT,TemperatureF,Dew PointF,Humidity,Sea Level PressureIn,VisibilityMPH,Wind Direction,Wind SpeedMPH,Gust SpeedMPH,PrecipitationIn,Events,Conditions,WindDirDegrees,DateUTC
12:18 AM,37.4,37.4,100,29.88,10.0,ESE,8.1,-,N/A,,Overcast,110,2012-11-02 06:18:00
12:34 AM,37.4,37.4,100,29.87,10.0,ESE,9.2,-,N/A,,Overcast,110,2012-11-02 06:34:00
12:53 AM,37.9,37.0,97,29.94,10.0,East,10.4,-,N/A,,Mostly Cloudy,100,2012-11-02 06:53:00
1:53 AM,37.9,37.0,97,29.94,10.0,ESE,8.1,-,0.00,Rain,Light Rain,110,2012-11-02 07:53:00
2:06 AM,37.4,37.4,100,29.87,10.0,ESE,8.1,-,0.00,,Overcast,110,2012-11-02 08:06:00
2:43 AM,37.4,37.4,100,29.88,9.0,ESE,6.9,-,0.00,,Overcast,120,2012-11-02 08:43:00
2:53 AM,37.9,37.0,97,29.95,9.0,ESE,6.9,-,0.00,Rain,Light Rain,120,2012-11-02 08:53:00
3:53 AM,37.9,37.0,97,29.95,3.0,ESE,5.8,-,0.00,,Overcast,110,2012-11-02 09:53:00
4:00 AM,37.4,37.4,100,29.89,2.0,SE,3.5,-,0.00,Rain,Light Rain,130,2012-11-02 10:00:00
4:07 AM,37.4,37.4,100,29.89,1.5,SE,4.6,-,0.00,Rain,Light Rain,130,2012-11-02 10:07:00
4:14 AM,37.4,37.4,100,29.89,1.0,SE,4.6,-,0.00,Rain,Light Rain,130,2012-11-02 10:14:00
4:24 AM,37.4,37.4,100,29.89,0.8,SE,4.6,-,0.00,Rain,Light Rain,130,2012-11-02 10:24:00
4:37 AM,37.4,37.4,100,29.89,1.2,ESE,4.6,-,0.00,,Overcast,120,2012-11-02 10:37:00
4:44 AM,37.4,35.6,93,29.89,1.8,ESE,5.8,-,0.00,,Overcast,110,2012-11-02 10:44:00
4:53 AM,36.0,36.0,100,29.95,1.8,ESE,5.8,-,0.00,,Overcast,110,2012-11-02 10:53:00
5:00 AM,35.6,35.6,100,29.89,2.0,ESE,4.6,-,N/A,,Overcast,120,2012-11-02 11:00:00
5:07 AM,35.6,35.6,100,29.89,1.2,ESE,4.6,-,N/A,,Overcast,120,2012-11-02 11:07:00
5:16 AM,35.6,35.6,100,29.90,0.5,ESE,4.6,-,N/A,Fog,Fog,120,2012-11-02 11:16:00
5:46 AM,35.6,35.6,100,29.91,0.2,Calm,Calm,-,N/A,Fog,Fog,0,2012-11-02 11:46:00
5:53 AM,36.0,36.0,100,29.97,0.2,Calm,Calm,-,N/A,Fog,Fog,0,2012-11-02 11:53:00
6:53 AM,36.0,36.0,100,29.99,0.2,WSW,3.5,-,N/A,Fog,Fog,250,2012-11-02 12:53:00
7:26 AM,37.4,35.6,93,29.94,0.5,WNW,8.1,-,N/A,Fog,Fog,290,2012-11-02 13:26:00
7:32 AM,37.4,35.6,93,29.94,1.5,WNW,8.1,-,N/A,,Overcast,290,2012-11-02 13:32:00
7:35 AM,37.4,37.4,100,29.94,3.0,WNW,9.2,-,N/A,,Overcast,300,2012-11-02 13:35:00
7:48 AM,37.4,35.6,93,29.94,10.0,WNW,10.4,-,N/A,,Overcast,300,2012-11-02 13:48:00
7:53 AM,37.0,36.0,96,30.01,10.0,NW,10.4,-,N/A,,Overcast,310,2012-11-02 13:53:00
8:17 AM,37.4,35.6,93,29.96,10.0,WNW,6.9,-,N/A,,Overcast,300,2012-11-02 14:17:00
8:53 AM,37.0,36.0,96,30.03,3.0,WNW,8.1,-,N/A,,Overcast,290,2012-11-02 14:53:00
9:03 AM,37.4,37.4,100,29.97,3.0,WNW,8.1,-,N/A,,Overcast,300,2012-11-02 15:03:00
9:53 AM,37.9,37.0,97,30.04,6.0,WNW,5.8,-,N/A,,Overcast,290,2012-11-02 15:53:00
10:12 AM,37.4,37.4,100,29.98,3.0,WNW,8.1,-,N/A,,Overcast,290,2012-11-02 16:12:00
10:53 AM,37.0,35.1,93,30.06,10.0,NW,17.3,23.0,N/A,,Overcast,310,2012-11-02 16:53:00
11:02 AM,37.4,35.6,93,30.00,10.0,NW,16.1,-,N/A,,Overcast,310,2012-11-02 17:02:00
11:53 AM,37.0,33.1,86,30.09,10.0,NW,13.8,-,N/A,,Overcast,310,2012-11-02 17:53:00
12:53 PM,37.0,32.0,82,30.10,10.0,NW,19.6,-,N/A,,Overcast,310,2012-11-02 18:53:00
1:53 PM,37.9,32.0,79,30.10,10.0,NW,17.3,-,N/A,,Overcast,320,2012-11-02 19:53:00
2:53 PM,39.0,30.9,73,30.11,10.0,NW,17.3,-,N/A,,Overcast,310,2012-11-02 20:53:00
3:53 PM,37.9,30.9,76,30.14,10.0,NW,12.7,-,N/A,,Overcast,320,2012-11-02 21:53:00
4:53 PM,37.9,30.9,76,30.15,10.0,NNW,9.2,-,N/A,,Overcast,330,2012-11-02 22:53:00
5:53 PM,37.0,30.9,79,30.17,10.0,NW,12.7,-,N/A,,Overcast,320,2012-11-02 23:53:00
6:53 PM,37.0,30.9,79,30.18,10.0,NW,6.9,-,N/A,,Overcast,320,2012-11-03 00:53:00
7:53 PM,37.0,30.9,79,30.19,10.0,NNW,5.8,-,N/A,,Overcast,340,2012-11-03 01:53:00
8:44 PM,35.6,30.2,81,30.13,10.0,NNW,4.6,-,N/A,,Overcast,340,2012-11-03 02:44:00
8:53 PM,36.0,30.0,79,30.20,10.0,North,6.9,-,N/A,,Overcast,360,2012-11-03 02:53:00
9:53 PM,35.1,28.9,78,30.21,10.0,North,9.2,-,N/A,,Overcast,350,2012-11-03 03:53:00
10:53 PM,34.0,28.9,82,30.22,10.0,North,4.6,-,N/A,,Overcast,10,2012-11-03 04:53:00
11:53 PM,33.1,28.0,82,30.23,10.0,NNE,5.8,-,N/A,,Overcast,20,2012-11-03 05:53:00